RH
96 87 71 90 87 90 86 78 81 82 87 84 84 97 96 97 96 98 99 98 99 98 96 95 95 92 88 83 84 65 70 65 94 94 96 87 92 81 76 68 81 86 94 94 87 95 88 46 36 34 33 35 35 36
91 94 91 87 88 87 83 87 83 77 75 80 86 88 88 99 98 96 93 93 94 97 93 83 78 75 74 70 87 85 67 71 70 98 97 87 87 93 87 90 63 79 67 80 75 69 48 41 35 36 38 38 37 38
95 96 89 83 92 84 82 88 83 71 60 46 38 42 50 61 86 90 98 99 96 98 85 83 65 58 54 54 69 98 90 79 73 69 80 87 95 88 90 95 76 60 55 65 60 45 58 42 39 42 46 43 38 38
84 56 96 92 89 82 81 84 74 50 34 32 37 41 41 47 57 82 86 84 90 98 96 69 54 58 45 46 51 60 54 74 72 78 80 88 84 64 81 55 82 67 70 68 66 50 41 40 45 48 49 40 39 38
87 78 77 89 92 80 77 76 58 34 35 36 30 25 23 31 66 92 97 41 48 83 93 79 78 51 46 46 45 52 75 86 95 87 90 90 82 76 75 84 74 59 55 57 56 50 52 50 50 51 48 41 40 40
69 83 87 88 93 81 77 72 43 35 29 25 26 34 43 73 90 100 73 65 56 71 96 98 75 43 48 62 52 63 67 98 98 83 85 80 66 73 94 86 46 48 51 49 52 45 49 45 50 45 42 41 36 37
40 63 84 92 86 77 76 52 34 26 27 52 69 58 49 87 99 94 69 75 91 85 94 96 83 39 63 79 83 64 68 96 94 85 85 77 73 78 90 89 55 50 46 48 47 46 54 53 52 42 41 47 46 38
63 79 87 91 80 76 55 34 28 45 44 45 61 75 48 42 80 80 50 74 95 99 92 96 92 69 38 68 68 66 68 79 93 83 75 77 78 85 93 66 54 54 54 53 50 48 54 49 44 39 37 34 35 38
69 89 85 80 74 53 35 31 40 39 62 62 49 38 25 34 57 63 81 88 93 93 95 96 99 84 56 74 75 92 81 95 80 92 76 82 86 94 72 56 51 52 52 52 54 55 53 51 51 49 49 49 49 43
87 80 74 63 49 36 28 32 46 60 78 69 48 34 30 54 82 78 45 78 99 98 98 97 82 85 49 81 89 76 87 94 99 89 82 97 80 55 52 52 52 52 51 52 51 58 60 63 59 54 48 46 45 41
81 70 61 51 40 29 29 45 77 82 73 62 63 52 51 68 84 77 86 91 88 98 97 94 84 82 62 78 86 77 96 97 98 90 98 97 96 78 78 72 68 69 68 66 61 56 55 54 54 48 47 47 50 52
88 70 59 49 32 28 38 64 78 90 83 88 92 94 100 98 98 97 96 90 97 96 97 97 94 97 96 96 97 94 97 97 95 92 99 98 92 85 85 78 70 71 71 68 71 65 59 61 59 55 53 55 54 52
86 73 64 43 28 40 58 74 68 61 80 91 98 88 97 84 98 98 95 95 96 96 97 94 92 92 98 97 98 99 98 95 95 97 94 95 84 92 96 89 84 75 80 80 74 76 69 66 64 62 62 59 52 64
95 79 58 27 30 43 61 72 73 82 91 88 92 95 92 94 96 96 96 95 82 91 91 98 97 97 98 98 98 98 92 97 97 97 96 96 96 98 93 94 98 94 94 92 96 76 68 66 65 62 58 65 73 72
94 65 26 31 43 57 82 79 78 85 70 93 88 97 97 85 91 82 77 82 81 90 94 97 98 97 97 98 98 98 97 96 95 96 95 96 96 96 95 96 96 96 97 97 99 99 95 82 77 80 82 80 81 76
52 29 39 51 74 74 69 77 67 65 100 96 87 89 90 97 85 80 85 90 93 97 88 91 96 97 95 98 97 96 96 96 95 96 97 96 96 96 97 98 97 96 96 97 97 98 99 100 99 97 97 97 95 96
40 52 66 67 70 82 78 56 62 76 100 99 98 100 98 99 98 92 96 96 95 96 97 96 96 94 96 96 95 96 95 96 96 96 96 96 99 96 96 96 96 96 96 96 96 97 96 97 98 98 96 97 97 98
61 66 83 84 79 60 49 65 76 95 93 93 98 90 98 96 96 96 97 96 96 95 96 96 97 96 96 95 95 96 96 96 96 95 96 96 96 96 96 96 96 96 96 97 97 97 96 96 95 96 96 97 96 97
60 64 64 71 53 49 53 76 86 98 94 97 96 98 98 90 86 89 94 95 96 96 96 95 95 97 93 95 96 96 96 96 95 96 96 96 96 96 96 96 96 96 95 96 95 95 96 96 96 96 96 96 94 92
86 71 58 48 48 51 62 80 87 96 95 98 99 95 81 82 83 88 93 95 96 96 95 95 95 95 96 95 96 97 96 96 96 95 95 96 96 96 96 96 96 96 96 96 96 96 96 95 95 96 96 96 91 79
50 45 47 52 56 55 66 77 82 88 90 93 93 79 75 84 93 92 95 95 94 95 95 95 96 96 96 96 96 96 96 96 95 94 96 95 96 96 96 96 96 96 94 95 95 96 94 95 96 94 89 88 88 89
44 51 60 61 61 70 80 85 85 92 90 90 86 80 80 87 95 95 95 89 95 96 96 96 96 95 96 96 96 96 96 96 96 95 96 96 92 90 89 88 81 78 77 77 76 75 76 80 78 72 67 68 67 64
52 59 62 63 64 72 76 75 85 86 87 78 80 84 93 93 95 96 95 95 96 96 96 96 96 96 96 96 96 96 96 96 93 93 92 92 89 84 76 71 71 71 72 75 74 70 69 72 70 69 70 70 69 67
56 65 61 62 66 71 78 81 86 86 88 94 99 96 95 92 81 94 95 95 96 96 95 96 96 96 96 96 95 95 93 87 83 82 82 76 72 76 76 75 75 75 79 81 78 75 74 73 76 74 73 72 71 70
61 70 73 91 90 82 100 100 100 97 100 100 100 99 96 88 96 97 95 96 95 95 95 95 96 96 95 96 95 91 89 81 77 75 84 88 87 85 83 83 84 88 92 89 87 87 86 86 85 84 84 81 81 80
83 88 83 99 98 90 98 98 100 100 100 100 100 99 84 90 93 100 96 96 96 95 95 95 92 92 89 90 91 88 87 88 87 77 88 92 90 89 90 88 87 88 88 89 90 88 88 86 84 82 82 82 82 81
99 100 100 100 98 95 98 99 98 96 100 100 100 98 95 99 100 97 98 96 96 91 86 81 80 86 88 89 89 90 92 94 89 88 93 93 91 90 89 86 84 86 86 86 86 86 87 87 86 84 83 83 85 84
96 97 98 99 94 95 99 100 100 100 100 100 96 100 100 92 95 100 99 98 96 88 81 79 84 89 91 92 93 94 94 93 92 94 92 90 91 91 92 93 95 95 93 89 85 86 87 88 89 90 89 89 89 89
97 98 94 100 96 94 98 97 99 100 100 98 95 100 100 100 99 100 99 99 96 91 89 84 94 98 98 98 99 97 93 87 78 72 69 70 68 67 66 70 78 87 91 90 88 89 90 89 88 89 90 91 91 91
99 95 91 96 94 99 98 98 100 100 99 97 94 98 98 98 98 97 97 96 88 83 79 74 79 89 90 87 76 67 65 66 68 66 65 65 65 62 59 58 56 56 58 66 80 88 91 92 93 93 94 93 92 92
96 92 90 94 96 97 98 99 99 99 98 97 93 89 96 95 96 96 94 86 81 78 75 71 67 67 70 72 72 70 71 74 75 75 74 73 72 70 68 65 62 58 56 56 57 62 73 84 89 91 91 92 92 92
95 93 89 100 97 97 96 97 98 96 96 96 96 96 96 99 97 97 94 86 78 74 72 71 71 68 70 74 76 76 78 82 87 82 80 79 77 75 74 71 68 65 61 58 55 55 56 60 74 87 90 90 91 92
96 94 97 95 96 96 96 94 96 97 97 96 97 97 97 97 96 99 98 93 86 79 75 74 76 77 77 78 80 83 87 91 88 86 85 84 80 77 74 71 68 64 60 57 56 56 58 60 64 79 90 92 93 95
Wind_Speed
16 15 11 11 11 9 6 5 2 2 2 3 3 3 4 4 4 5 6 10 12 9 15 20 18 14 13 11 4 5 9 2 2 3 3 4 3 5 3 3 5 6 7 4 4 3 8 3 1 4 4 9 14 12
16 13 14 13 11 8 7 6 4 2 2 4 6 6 5 7 8 10 12 11 13 14 15 23 25 25 26 27 17 9 9 6 3 3 3 3 3 3 3 3 1 3 5 4 8 6 5 2 2 13 14 15 15 11
16 14 14 13 11 8 8 7 5 4 4 5 4 4 4 5 4 6 8 10 13 15 22 20 16 6 17 22 31 13 11 19 14 16 3 3 5 2 4 4 4 4 2 4 0 5 6 9 2 10 27 27 22 18
14 15 15 12 11 9 8 7 5 5 4 4 5 6 7 9 10 11 12 12 14 10 7 10 15 13 10 12 22 35 36 33 28 20 11 4 5 8 4 7 7 6 8 5 8 11 22 9 2 13 29 29 26 17
12 11 15 14 13 10 9 7 6 6 5 6 7 8 9 10 11 11 13 18 19 16 7 16 29 35 27 36 32 28 32 33 22 14 7 6 6 8 10 5 13 13 15 11 14 14 10 21 21 31 30 22 20 23
12 15 16 15 14 11 9 8 7 6 6 7 8 9 11 10 10 11 7 4 7 9 9 4 8 34 32 28 23 35 35 28 24 11 8 15 18 9 5 8 12 26 33 38 34 40 45 44 45 42 34 23 21 21
13 17 17 17 14 11 9 8 6 5 6 7 9 12 12 12 13 11 8 3 7 8 5 9 11 8 13 8 10 25 22 19 18 14 15 26 22 19 10 21 20 34 32 33 39 43 35 38 32 37 26 20 23 24
16 19 18 16 13 10 8 6 5 5 7 9 11 14 17 19 19 22 25 25 25 21 7 3 5 8 15 7 5 9 8 14 12 13 14 15 16 18 10 24 49 42 35 38 43 41 40 37 35 41 40 41 40 34
18 19 16 14 12 9 8 6 6 6 8 11 15 18 22 12 4 2 5 3 5 15 4 6 3 4 2 7 4 4 8 4 10 6 7 9 7 7 12 24 36 34 31 41 38 40 45 45 45 44 40 35 31 33
20 17 15 12 10 8 6 5 5 7 9 14 17 5 3 1 3 14 10 5 8 11 11 5 5 5 6 3 3 3 6 4 3 6 9 6 9 32 38 41 42 35 35 30 31 32 36 36 39 39 39 39 39 41
17 15 13 10 8 7 5 4 4 7 12 9 5 3 6 12 22 5 3 3 7 4 7 7 16 11 13 7 2 5 3 3 3 5 6 3 4 3 11 17 21 22 25 34 39 44 42 36 34 33 36 30 24 22
17 14 11 9 8 6 4 3 4 8 10 7 8 18 13 3 5 3 3 4 5 2 6 4 9 15 8 11 7 7 4 3 6 6 2 3 2 17 28 31 31 29 27 26 26 39 44 42 38 38 36 27 23 24
17 14 11 8 7 4 2 5 9 7 8 11 2 3 3 4 1 4 3 2 2 5 4 15 9 6 5 13 7 3 6 6 3 3 3 1 13 24 30 35 35 32 28 28 28 27 30 33 32 29 27 28 27 17
16 13 10 8 5 4 5 8 5 5 3 2 2 4 4 3 4 3 3 3 5 6 17 20 9 5 7 7 4 5 4 1 3 3 2 4 23 29 32 30 27 29 26 23 18 12 12 19 23 23 22 20 15 18
14 11 9 6 4 6 8 7 8 7 3 4 4 4 5 6 4 10 9 8 12 17 16 11 10 8 3 4 4 2 3 3 3 3 3 19 27 26 25 23 20 17 13 8 3 3 6 11 14 14 13 15 17 19
12 9 6 6 8 7 7 9 10 7 5 5 7 5 5 4 8 7 12 9 14 9 17 9 4 4 5 3 3 4 3 3 3 3 15 21 20 19 20 18 15 13 13 13 13 12 15 17 19 19 19 18 20 21
10 8 7 8 5 7 8 10 5 6 7 5 7 11 15 14 12 10 15 13 14 9 2 4 4 4 4 3 3 3 2 3 8 12 13 16 19 19 18 19 21 22 24 25 26 26 26 24 25 26 27 24 25 26
9 7 8 6 6 6 7 7 5 5 7 10 5 3 6 10 10 12 12 17 9 5 4 2 8 3 3 4 2 3 3 5 8 11 14 15 17 20 22 25 26 28 31 32 33 33 34 35 37 35 33 32 32 31
8 8 7 5 4 3 3 5 4 4 9 4 7 10 7 6 8 14 13 12 11 13 7 5 2 2 2 4 7 6 4 3 7 11 15 15 16 18 21 24 27 30 32 34 36 36 35 35 33 31 30 29 30 28
6 5 5 5 4 3 3 4 5 5 3 3 5 4 4 0 11 13 11 8 7 5 4 3 2 6 6 15 8 4 3 4 10 15 17 17 18 20 23 24 26 26 28 30 31 30 30 29 27 25 23 24 24 23
5 6 6 5 4 9 3 4 4 3 4 3 3 4 3 5 4 10 13 9 6 5 3 6 10 7 4 2 5 5 6 9 12 12 11 14 16 18 19 20 21 23 25 26 26 26 26 25 22 20 19 19 18 17
5 5 3 4 6 5 4 4 3 3 3 3 3 2 2 2 3 5 6 11 4 5 6 10 9 7 10 12 12 11 10 9 11 11 10 11 15 17 19 19 19 22 23 22 21 21 20 18 16 15 16 16 13 12
5 5 4 6 4 4 2 2 2 2 1 2 2 1 2 2 3 2 4 4 4 9 8 6 7 9 11 12 12 12 12 11 13 14 13 14 15 15 15 16 16 17 18 19 16 15 15 14 13 12 12 11 10 10
5 5 4 3 2 2 2 2 1 1 0 3 3 2 2 3 3 3 2 2 6 9 10 8 5 8 11 13 16 15 14 12 13 14 14 12 13 15 15 15 14 15 16 14 13 13 12 12 12 10 10 10 9 9
3 1 1 1 1 1 4 4 5 3 0 1 2 2 2 3 2 2 1 2 6 8 7 8 9 9 12 13 13 12 11 9 9 12 13 13 13 13 13 13 13 13 12 10 12 12 12 11 10 10 10 9 9 9
3 1 2 2 1 2 3 1 1 2 1 1 2 3 2 3 3 1 1 4 4 6 6 6 6 5 7 8 9 9 10 10 7 10 13 11 10 10 11 9 9 10 11 11 10 10 10 9 9 8 8 8 8 8
3 2 2 2 2 3 3 2 2 3 2 1 2 3 3 3 2 1 1 3 3 4 4 4 4 5 6 8 9 11 11 10 9 12 12 10 10 9 9 8 8 8 8 8 8 7 7 7 7 8 8 8 8 8
3 3 4 4 3 2 4 2 2 1 2 1 0 2 4 5 3 1 1 3 4 7 7 5 5 7 8 10 10 10 9 8 9 10 10 11 10 10 10 10 9 8 8 7 6 6 6 6 5 6 6 7 8 8
3 5 4 3 3 3 2 2 2 1 1 1 3 2 2 1 2 2 3 3 4 5 5 5 7 8 8 9 8 7 8 10 10 10 11 11 11 12 13 13 12 11 10 10 9 7 7 8 7 7 8 8 8 9
3 5 3 3 3 0 1 2 3 3 2 2 4 5 5 5 4 3 2 2 3 4 5 6 8 10 9 7 9 11 12 12 11 12 13 15 15 15 15 15 15 14 14 12 11 10 10 9 9 9 10 10 10 10
5 3 3 3 2 3 4 5 5 4 3 4 6 7 6 5 5 5 4 3 3 4 5 6 7 9 11 11 10 11 12 11 11 12 12 13 13 14 14 15 15 15 15 14 13 13 12 12 12 11 11 11 11 11
2 2 4 2 2 4 5 2 2 3 2 2 3 3 3 2 2 3 4 5 4 5 6 7 7 7 9 9 9 8 9 9 8 8 10 11 12 13 14 14 14 14 14 15 15 16 15 14 13 13 13 11 10 9
4 5 5 5 4 3 2 2 2 2 2 2 2 2 1 2 2 4 7 7 7 7 7 8 9 8 8 7 6 5 5 4 5 7 9 10 12 13 14 14 14 15 15 15 16 15 15 15 14 13 12 11 10 9
Wind_Direction
192 194 197 187 172 194 210 215 192 181 211 249 271 288 304 302 252 255 262 271 271 269 270 265 257 249 254 249 235 278 339 279 283 245 239 225 218 228 251 225 188 176 162 196 178 187 263 257 91 11 257 310 324 323
194 194 188 177 182 192 199 200 201 207 242 252 263 272 263 268 274 279 282 287 284 277 269 275 269 261 260 262 262 233 227 278 258 306 54 341 331 314 239 243 207 253 198 186 198 210 229 341 37 350 355 328 325 315
191 189 183 175 187 187 202 205 210 232 256 269 270 275 278 277 281 279 288 299 297 290 295 271 283 300 275 275 250 250 240 238 241 256 306 264 250 258 264 241 316 276 220 229 316 287 244 273 73 12 357 347 336 325
189 184 179 181 195 198 203 213 237 248 253 262 278 289 296 292 285 273 270 271 274 272 273 285 291 276 291 264 248 242 252 246 247 246 234 246 245 233 228 253 232 240 326 316 286 280 291 284 158 333 334 341 352 339
173 171 178 184 197 204 213 221 235 242 258 276 290 300 303 302 303 297 284 281 267 250 278 290 289 294 282 258 254 246 245 242 240 249 232 243 236 259 252 254 251 215 237 247 260 254 278 280 290 306 322 320 334 347
181 183 185 191 199 204 211 223 235 254 276 293 305 311 310 310 311 316 315 287 267 254 269 309 301 295 294 274 252 253 243 240 231 236 239 243 238 226 253 261 230 231 232 237 250 256 256 265 276 285 294 288 290 321
192 190 190 193 196 204 217 228 242 264 287 302 303 302 304 299 290 266 242 284 250 303 306 306 310 281 301 310 235 237 239 224 231 242 238 249 246 237 255 258 271 256 244 244 249 259 264 262 260 270 265 273 295 305
192 185 190 191 200 208 222 234 251 275 291 302 302 300 300 296 281 270 277 269 261 270 260 257 259 289 273 247 225 199 204 210 223 231 241 236 253 230 252 248 253 258 255 253 250 250 250 261 271 274 275 279 281 289
179 178 187 192 198 206 221 235 265 287 298 295 302 310 304 284 282 340 349 24 262 216 226 218 200 266 256 248 224 212 221 221 230 215 216 209 218 226 246 252 257 260 249 253 254 252 252 257 265 271 273 273 275 273
175 183 187 191 197 209 222 249 279 302 305 309 317 311 282 239 280 305 307 224 209 215 229 234 220 254 276 259 248 259 227 222 240 215 185 221 241 242 255 264 273 280 277 271 260 249 245 247 254 262 266 268 271 275
181 185 188 191 199 213 230 256 299 309 317 338 340 283 289 284 297 243 259 212 203 243 225 243 233 246 253 236 214 245 261 238 244 231 188 239 249 312 332 318 300 299 284 271 264 264 261 256 256 262 272 273 279 274
184 190 190 195 204 215 234 289 321 308 321 314 291 287 291 246 220 182 216 248 208 241 336 345 326 284 234 205 196 216 232 263 256 144 185 256 22 341 337 332 325 319 311 297 273 260 262 257 254 260 266 268 278 283
187 191 194 203 206 217 255 288 312 311 294 290 270 256 248 236 268 180 241 320 318 331 333 321 315 275 233 201 216 239 237 226 136 217 228 67 339 335 333 332 325 320 316 305 290 272 262 253 254 253 253 265 279 253
186 188 199 202 211 245 276 296 290 281 275 268 241 290 193 270 235 197 178 216 281 279 305 303 276 263 260 195 233 258 238 234 247 241 324 336 338 330 332 331 326 322 318 311 302 281 247 241 241 247 250 252 223 196
186 191 199 207 236 246 256 252 272 278 247 221 213 240 231 243 276 294 300 292 298 314 316 300 271 238 268 256 216 252 299 259 34 337 321 330 334 340 341 342 340 345 351 351 345 187 172 183 184 177 172 174 175 166
184 187 207 223 221 209 239 269 276 264 203 218 234 255 250 292 297 307 309 307 321 312 309 264 257 275 248 290 300 11 346 22 342 327 331 343 351 3 9 15 20 28 47 66 85 114 133 142 147 146 148 154 153 156
183 192 184 181 213 240 267 272 251 208 200 222 240 241 259 278 273 298 310 310 311 310 238 254 238 246 305 351 20 11 14 339 341 356 13 20 24 26 38 50 56 65 72 79 87 92 99 109 118 119 112 116 123 125
199 178 195 223 243 274 272 210 207 213 237 238 238 261 249 267 293 316 304 305 298 237 238 317 312 324 342 356 4 2 28 47 48 45 44 48 53 57 60 63 69 75 79 82 86 91 94 96 96 97 103 107 108 109
193 204 210 231 252 242 234 204 216 247 237 255 261 270 275 298 320 314 311 303 277 243 280 335 14 359 329 332 340 352 14 60 68 60 60 58 60 65 71 72 72 73 74 76 79 81 83 85 89 93 96 98 99 102
200 224 246 246 230 218 220 210 216 251 256 252 255 265 281 194 12 6 11 11 72 104 59 28 3 328 308 305 332 352 85 111 98 78 64 62 64 66 67 71 74 77 79 79 80 81 84 84 85 87 91 96 97 94
227 236 221 230 239 213 234 216 230 248 276 264 262 295 247 251 296 4 18 28 58 31 22 354 338 340 312 7 99 113 109 115 93 89 83 72 72 74 74 74 75 76 76 76 78 79 78 77 82 87 90 89 91 96
221 211 239 226 218 210 238 220 247 264 267 275 289 299 311 49 16 8 20 40 54 2 350 353 10 63 80 86 90 93 93 93 90 88 86 89 82 76 71 69 71 72 73 72 73 75 78 77 74 77 78 79 83 88
215 218 206 195 193 207 232 247 244 236 78 313 306 28 20 33 4 45 71 52 35 3 9 36 54 74 86 89 92 91 85 84 86 84 82 80 79 77 75 70 68 69 69 67 68 71 74 74 75 71 70 70 69 70
190 185 183 175 191 190 211 177 240 281 295 23 42 357 335 340 1 76 82 60 2 15 40 54 87 92 92 91 84 81 80 82 88 89 82 78 78 73 69 69 69 70 67 63 65 67 71 70 66 63 62 61 63 61
185 348 182 48 71 111 31 3 351 46 89 311 53 337 326 345 67 56 69 33 10 19 35 54 68 80 84 83 85 84 86 84 86 92 86 75 67 69 70 67 66 66 66 65 63 60 62 61 57 54 55 56 52 48
91 52 78 142 325 107 184 102 275 212 139 7 248 317 350 78 65 164 14 351 6 16 35 52 64 77 96 100 100 100 92 84 80 92 84 75 70 65 61 58 56 56 52 48 46 45 45 45 44 44 43 40 36 31
109 227 116 138 140 137 93 89 98 105 93 177 279 18 58 72 229 231 357 14 36 36 51 67 87 103 108 106 106 105 100 99 94 85 79 72 64 58 53 50 45 43 38 33 28 26 25 25 24 27 26 25 23 19
113 143 155 156 121 103 129 89 106 173 242 73 94 54 145 181 200 80 71 79 94 86 59 69 111 114 117 120 114 108 102 94 88 79 76 67 58 52 49 42 35 30 23 19 14 5 360 1 7 1 360 359 357 354
109 135 138 80 88 69 62 136 163 99 336 264 125 176 151 119 153 144 124 114 121 107 81 75 111 118 118 122 117 105 95 94 80 81 77 70 63 50 42 38 36 34 28 22 20 13 356 350 354 348 343 342 341 338
128 152 107 91 92 190 108 118 108 94 55 117 117 117 113 114 106 126 136 131 123 110 100 93 109 109 111 108 103 101 96 92 87 80 71 59 50 45 41 37 33 29 26 21 15 10 5 359 352 349 344 339 337 332
135 126 98 81 100 117 129 127 111 98 91 94 113 131 125 123 99 93 113 135 151 138 129 115 113 114 112 109 104 100 96 87 73 64 58 52 43 36 30 26 23 20 18 15 13 10 6 3 0 355 349 344 341 340
112 105 124 109 122 140 143 145 108 101 117 108 109 106 119 125 127 147 144 148 136 138 149 140 132 132 126 124 120 112 97 81 62 51 46 37 28 21 17 12 8 5 5 5 6 7 5 2 358 356 353 352 353 351
102 110 106 111 126 166 154 149 98 101 105 102 112 130 132 153 151 165 165 165 166 152 148 147 141 140 138 136 128 110 83 57 30 24 23 15 9 5 2 1 1 359 359 360 358 358 358 357 355 353 352 349 346 347